Raleigh-Durham Airport, NC

4:46 AM EDT on April 26, 2018 (GMT -0400)
Raleigh-Durham International

Weather History for KRDU - August, 2012

Change the Weather History Date:

Tuesday, August 7, 2012

  Actual Average Record
Temperature  
Mean Temperature 81 °F 79 °F  
Max Temperature 87 °F 89 °F 100 °F (1999)
Min Temperature 74 °F 70 °F 52 °F (1948)
Degree Days  
Heating Degree Days 0 0  
Month to date heating degree days 0 0  
Since 1 June heating degree days 0 4  
Since 1 July heating degree days 0 0  
Cooling Degree Days 16 14  
Month to date cooling degree days 123 103  
Year to date cooling degree days 1326 1125  
Since 1 June cooling degree days 1004 916  
Growing Degree Days 30 (Base 50)    
Moisture  
Dew Point 72 °F    
Average Humidity 82    
Maximum Humidity 94    
Minimum Humidity 69    
Precipitation  
Precipitation 0.08 in 0.14 in 2.30 in (1892)
Month to date precipitation 0.65 1.00  
Year to date precipitation 24.25 26.28  
Sea Level Pressure  
Sea Level Pressure 30.02 in    
Wind  
Wind Speed 6 mph (SW)    
Max Wind Speed 14 mph    
Max Gust Speed 18 mph    
Visibility 9 miles    
Events Rain    
T = Trace of Precipitation, MM = Missing Value Source: NWS Daily Summary

Daily Weather History Graph

Daily Weather History Graph

Search for Another Location

Airport or City:

Astronomy

Aug. 07, 2012 Rise Set
Actual Time 6:27 AM EDT 8:13 PM EDT
Civil Twilight 6:00 AM EDT 8:40 PM EDT
Nautical Twilight 5:26 AM EDT 9:14 PM EDT
Astronomical Twilight 4:51 AM EDT 9:49 PM EDT
Moon 11:07 PM EDT (8/7) 11:59 AM EDT (8/7)
Length of Visible Light 14h 40m
Length of Day
13h 45m
Waning Gibbous, 70% of the Moon is Illuminated
Aug 7
Waning Gibbous
Aug 9
Last Quarter
Aug 17
New
Aug 24
First Quarter
Aug 31
Full

Hourly Weather History & Observations

Time (EDT) Temp. Heat Index Dew Point Humidity Pressure Visibility Wind Dir Wind Speed Gust Speed Precip Events Conditions
12:51 AM 73.9 °F - 72.0 °F 93% 30.05 in 10.0 mi Calm Calm - 0.02 in   Overcast
1:51 AM 73.9 °F - 72.0 °F 93% 30.04 in 10.0 mi West 3.5 mph - 0.02 in   Overcast
2:51 AM 73.9 °F - 72.0 °F 93% 30.01 in 10.0 mi SW 4.6 mph - 0.02 in   Overcast
3:37 AM 75.2 °F - 71.6 °F 89% 30.01 in 10.0 mi SSW 4.6 mph - N/A   Overcast
3:51 AM 75.0 °F - 73.0 °F 94% 30.00 in 10.0 mi SSW 3.5 mph - N/A   Overcast
4:51 AM 73.9 °F - 72.0 °F 93% 30.00 in 10.0 mi Calm Calm - N/A   Mostly Cloudy
5:07 AM 73.4 °F - 73.4 °F 100% 30.01 in 10.0 mi Calm Calm - N/A   Mostly Cloudy
5:51 AM 75.0 °F - 73.0 °F 94% 30.01 in 10.0 mi SSW 6.9 mph - N/A   Mostly Cloudy
6:51 AM 75.0 °F - 72.0 °F 90% 30.03 in 3.0 mi SW 6.9 mph - N/A   Overcast
7:18 AM 75.2 °F - 73.4 °F 94% 30.04 in 2.5 mi WSW 6.9 mph - 0.00 in Rain Light Rain
7:51 AM 75.0 °F - 73.0 °F 94% 30.04 in 2.5 mi SW 8.1 mph - 0.01 in Rain Light Rain
8:51 AM 75.0 °F - 73.0 °F 94% 30.04 in 3.0 mi SW 6.9 mph - 0.02 in Rain Light Rain
9:51 AM 75.9 °F - 73.0 °F 91% 30.05 in 6.0 mi SW 6.9 mph - 0.01 in Rain Light Rain
10:51 AM 77.0 °F - 73.0 °F 88% 30.04 in 8.0 mi WSW 5.8 mph - 0.00 in Rain Light Rain
11:51 AM 79.0 °F - 73.0 °F 82% 30.04 in 10.0 mi West 4.6 mph - 0.00 in   Overcast
12:51 PM 81.0 °F 85.8 °F 73.0 °F 77% 30.02 in 10.0 mi WSW 3.5 mph - N/A   Mostly Cloudy
1:51 PM 84.0 °F 90.2 °F 73.0 °F 69% 30.01 in 10.0 mi WSW 6.9 mph - N/A   Mostly Cloudy
2:31 PM 84.2 °F 90.9 °F 73.4 °F 70% 30.01 in 10.0 mi SSW 9.2 mph - N/A   Mostly Cloudy
2:51 PM 82.0 °F 86.7 °F 72.0 °F 71% 30.00 in 10.0 mi SW 9.2 mph - N/A   Mostly Cloudy
3:51 PM 82.0 °F 87.4 °F 73.0 °F 74% 29.98 in 10.0 mi WSW 4.6 mph - N/A   Mostly Cloudy
4:51 PM 81.0 °F 85.8 °F 73.0 °F 77% 29.99 in 10.0 mi West 4.6 mph - 0.00 in   Overcast
5:51 PM 78.1 °F - 71.1 °F 79% 29.99 in 10.0 mi South 11.5 mph - 0.00 in   Mostly Cloudy
6:51 PM 78.1 °F - 70.0 °F 76% 29.98 in 10.0 mi South 6.9 mph - N/A   Mostly Cloudy
7:51 PM 77.0 °F - 72.0 °F 84% 29.99 in 10.0 mi South 5.8 mph - N/A   Overcast
8:51 PM 75.0 °F - 72.0 °F 90% 30.01 in 10.0 mi South 3.5 mph - N/A   Overcast
9:51 PM 75.0 °F - 71.1 °F 87% 30.02 in 10.0 mi South 5.8 mph - N/A   Overcast
10:51 PM 75.0 °F - 71.1 °F 87% 30.01 in 10.0 mi SSW 6.9 mph - N/A   Mostly Cloudy
11:51 PM 73.9 °F - 72.0 °F 93% 30.00 in 10.0 mi SW 4.6 mph - N/A   Mostly Cloudy